Regional Weather Roundup
Issued by NWS Sioux Falls, SD

Home | Current Version | Previous Version | Graphics & Text | Print | Product List | Glossary On
Versions: 1 2 3 4 5 6 7 8 9 10 11 12 13 14 15 16 17 18 19 20 21 22 23 24 25 26 27 28 29 30 31 32 33 34 35 36 37 38 39 40 41 42 43 44 45 46 47 48 49 50
000
ASUS43 KFSD 231610
RWRFSD

WEATHER ROUNDUP FOR SE SOUTH DAKOTA/SW MINNESOTA/NW IOWA
NATIONAL WEATHER SERVICE SIOUX FALLS SD
1100 AM CDT FRI JUN 23 2017

NOTE: "FAIR" INDICATES FEW OR NO CLOUDS BELOW 12,000 FEET WITH NO
SIGNIFICANT WEATHER AND OR OBSTRUCTIONS TO VISIBILITY.


SDZ038>040-050-052>070-231700-
SOUTHEAST SOUTH DAKOTA

CITY           SKY/WX    TMP DP  RH WIND       PRES   REMARKS
BROOKINGS      CLOUDY    59  50  72 NW22G31   29.97R
CHAMBERLAIN    CLOUDY    63  49  61 NW24      30.08S
HURON          CLOUDY    63  50  62 NW25      30.01R
MADISON        CLOUDY    57  50  77 NW23G32   30.01R
MITCHELL       CLOUDY    64  48  56 NW24G30   30.03R
SIOUX FALLS    CLOUDY    62  52  69 NW18G25   29.99R
WINNER         CLOUDY    62  47  57 NW23G36   30.11R
YANKTON        PTSUNNY   63  50  62 NW16      30.03S
$$

MNZ071-072-080-081-089-090-097-098-231700-
SOUTHWEST MINNESOTA

CITY           SKY/WX    TMP DP  RH WIND       PRES   REMARKS
FAIRMONT       PTSUNNY   66  54  65 NW20G26   29.88S
JACKSON        CLOUDY    64  52  63 NW22G29   29.91R
LUVERNE        CLOUDY    63  48  59 NW20G25   29.97R
MARSHALL       CLOUDY    64  53  67 NW21G31   29.90S
MONTEVIDEO     PTSUNNY   64  57  77 N20G26    29.88S
PIPESTONE      CLOUDY    63  52  67 NW17G26   29.96R
REDWOOD FALLS  CLOUDY    65  52  62 NW21G26   29.86S
TRACY          CLOUDY    64  55  73 NW17G26   29.91S
WINDOM         CLOUDY    66  52  59 NW21G26   29.90S
WORTHINGTON    CLOUDY    62  51  67 NW22      29.95R
$$

IAZ001>003-012>014-020>022-031-032-NEZ013-014-SDZ071-231700-
NORTHWEST IOWA

CITY           SKY/WX    TMP DP  RH WIND       PRES   REMARKS
CHEROKEE       PTSUNNY   64  53  69 NW15G24   29.96R
DENISON        PTSUNNY   68  50  52 NW22G28   29.98R
ESTHERVILLE    CLOUDY    65  54  67 NW15      29.91R
LE MARS        CLOUDY    63  52  67 NW16G30   30.00S
ORANGE CITY    CLOUDY    63  54  72 NW22G29   29.98R
SHELDON        CLOUDY    64  52  63 NW16G23   29.95R
SIOUX CITY     CLOUDY    63  52  67 NW17G30   29.98F
SPENCER        CLOUDY    66  52  60 NW21G29   29.94R
STORM LAKE       N/A     66  52  59 NW20      29.95S
$$

ABBREVIATIONS USED IN REMARKS
   TC - TEMPERATURE IN CELSIUS
  WCI - WIND CHILL INDEX
   HX - HEAT INDEX
  VSB - VISIBILITY





USA.gov is the U.S. government's official web portal to all federal, state and local government web resources and services.